Weather History for Salida, CO

Change the Weather History Date:

Thursday, May 16, 2013

  Actual Average (KGUC) Record (KGUC)
Temperature  
Mean Temperature 59 °F -  
Max Temperature 77 °F 62 °F 71 °F (2000)
Min Temperature 41 °F 31 °F 21 °F (1998)
Degree Days  
Heating Degree Days 6    
Growing Degree Days 9 (Base 50)    
Moisture  
Dew Point 32 °F    
Average Humidity 47    
Maximum Humidity 91    
Minimum Humidity 12    
Precipitation  
Precipitation 0.00 in - - ()
Sea Level Pressure  
Sea Level Pressure 30.14 in    
Wind  
Wind Speed 7 mph (WNW)    
Max Wind Speed 17 mph    
Max Gust Speed 26 mph    
Visibility 10 miles    
Events      
Averages and records for this station are not official NWS values.
T = Trace of Precipitation, MM = Missing Value Source: NWS Daily Summary

Daily Weather History Graph

Daily Weather History Graph

Search for Another Location

Airport:

Trip Planner

Search our weather history database for the weather conditions in past years. The results will help you decide how hot, cold, wet, or windy it might be!

Date:

Astronomy

May. 16, 2013 Rise Set
Actual Time 5:51 AM MDT 8:10 PM MDT
Civil Twilight 5:21 AM MDT 8:40 PM MDT
Nautical Twilight 4:44 AM MDT 9:17 PM MDT
Astronomical Twilight 4:04 AM MDT 9:57 PM MDT
Moon 11:26 AM MDT (5/16) 12:33 AM MDT (5/16)
Length of Visible Light 15h 18m
Length of Day
14h 18m
Waxing Crescent, 36% of the Moon is Illuminated
May 16
Waxing Crescent
May 17
First Quarter
May 24
Full
May 31
Last Quarter
Jun 8
New

Hourly Weather History & Observations

Time (MDT) Temp. Windchill Dew Point Humidity Pressure Visibility Wind Dir Wind Speed Gust Speed Precip Events Conditions
12:15 AM 47.3 °F - 44.2 °F 89% 30.21 in 10.0 mi NW 3.5 mph - N/A   Clear
12:35 AM 45.5 °F 44.2 °F 42.8 °F 90% 30.20 in 10.0 mi West 3.5 mph - N/A   Clear
12:55 AM 45.5 °F 41.8 °F 41.9 °F 87% 30.20 in 10.0 mi West 6.9 mph - N/A   Clear
1:15 AM 45.3 °F 43.0 °F 41.2 °F 85% 30.20 in 10.0 mi West 4.6 mph - N/A   Clear
1:35 AM 45.1 °F - 42.6 °F 91% 30.19 in 10.0 mi Calm Calm - N/A   Clear
1:55 AM 44.6 °F 42.2 °F 42.1 °F 91% 30.19 in 10.0 mi West 4.6 mph - N/A   Clear
2:15 AM 45.0 °F 43.5 °F 42.3 °F 90% 30.19 in 10.0 mi NW 3.5 mph - N/A   Clear
2:35 AM 45.5 °F 44.2 °F 42.3 °F 88% 30.19 in 10.0 mi NNW 3.5 mph - N/A   Clear
2:55 AM 45.1 °F 42.0 °F 41.9 °F 88% 30.19 in 10.0 mi NW 5.8 mph - N/A   Clear
3:15 AM 44.6 °F 40.7 °F 41.5 °F 89% 30.19 in 10.0 mi WNW 6.9 mph - N/A   Clear
3:35 AM 44.4 °F 41.2 °F 40.6 °F 87% 30.19 in 10.0 mi WNW 5.8 mph - N/A   Clear
3:55 AM 44.1 °F 40.8 °F 40.5 °F 87% 30.19 in 10.0 mi WNW 5.8 mph - N/A   Clear
4:15 AM 43.0 °F 41.3 °F 40.1 °F 90% 30.19 in 10.0 mi WNW 3.5 mph - N/A   Clear
4:35 AM 43.0 °F 41.3 °F 40.1 °F 90% 30.19 in 10.0 mi NNW 3.5 mph - N/A   Clear
4:55 AM 42.8 °F 39.3 °F 39.9 °F 90% 30.19 in 10.0 mi WNW 5.8 mph - N/A   Clear
5:15 AM 43.2 °F 40.5 °F 39.9 °F 88% 30.19 in 10.0 mi NW 4.6 mph - N/A   Clear
5:35 AM 43.2 °F 39.7 °F 39.7 °F 88% 30.19 in 10.0 mi NNW 5.8 mph - N/A   Clear
5:55 AM 43.2 °F 40.5 °F 39.2 °F 86% 30.19 in 10.0 mi West 4.6 mph - N/A   Clear
6:15 AM 41.2 °F 37.3 °F 38.5 °F 90% 30.19 in 10.0 mi WNW 5.8 mph - N/A   Clear
6:35 AM 42.8 °F 39.3 °F 38.8 °F 86% 30.19 in 10.0 mi NW 5.8 mph - N/A   Clear
6:55 AM 43.7 °F 39.1 °F 39.4 °F 85% 30.19 in 10.0 mi NNW 8.1 mph - N/A   Clear
7:15 AM 45.1 °F - 40.6 °F 84% 30.20 in 10.0 mi Calm Calm - N/A   Clear
7:35 AM 46.6 °F - 40.1 °F 78% 30.20 in 10.0 mi NNW 4.6 mph - N/A   Clear
7:55 AM 47.7 °F - 41.7 °F 80% 30.20 in 10.0 mi Calm Calm - N/A   Clear
8:15 AM 49.5 °F - 41.4 °F 74% 30.20 in 10.0 mi NNW 4.6 mph - N/A   Clear
8:35 AM 51.1 °F - 41.5 °F 70% 30.19 in 10.0 mi NNW 5.8 mph - N/A   Clear
8:55 AM 52.7 °F - 42.8 °F 69% 30.19 in 10.0 mi Calm Calm - N/A   Clear
9:15 AM 54.1 °F - 44.1 °F 69% 30.19 in 10.0 mi North 4.6 mph - N/A   Clear
9:35 AM 56.5 °F - 44.1 °F 63% 30.17 in 10.0 mi North 6.9 mph - N/A   Clear
9:55 AM 57.9 °F - 44.1 °F 60% 30.16 in 10.0 mi NNE 6.9 mph - N/A   Clear
10:15 AM 62.2 °F - 43.9 °F 51% 30.15 in 10.0 mi North 6.9 mph - N/A   Clear
10:35 AM 65.1 °F - 41.5 °F 42% 30.15 in 10.0 mi SSE 3.5 mph - N/A   Clear
10:55 AM 68.2 °F - 34.2 °F 28% 30.15 in 10.0 mi SSW 12.7 mph 20.7 mph N/A   Clear
11:15 AM 69.1 °F - 32.5 °F 26% 30.14 in 10.0 mi SSW 10.4 mph 20.7 mph N/A   Clear
11:35 AM 71.6 °F - 27.1 °F 19% 30.15 in 10.0 mi West 17.3 mph 23.0 mph N/A   Clear
11:55 AM 71.8 °F - 25.2 °F 18% 30.14 in 10.0 mi WSW 15.0 mph 24.2 mph N/A   Mostly Cloudy
12:15 PM 70.0 °F - 26.2 °F 19% 30.14 in 10.0 mi WSW 15.0 mph 21.9 mph N/A   Overcast
12:35 PM 72.7 °F - 27.3 °F 19% 30.13 in 10.0 mi WSW 13.8 mph 25.3 mph N/A   Mostly Cloudy
12:55 PM 74.7 °F - 26.4 °F 17% 30.13 in 10.0 mi West 17.3 mph 24.2 mph N/A   Scattered Clouds
1:15 PM 73.9 °F - 25.3 °F 16% 30.12 in 10.0 mi WNW 13.8 mph 21.9 mph N/A   Mostly Cloudy
1:35 PM 74.8 °F - 24.6 °F 15% 30.11 in 10.0 mi WNW 16.1 mph 26.5 mph N/A   Mostly Cloudy
1:55 PM 75.4 °F - 26.6 °F 16% 30.11 in 10.0 mi West 10.4 mph - N/A   Scattered Clouds
2:15 PM 75.9 °F - 24.4 °F 15% 30.10 in 10.0 mi WSW 6.9 mph - N/A   Scattered Clouds
2:35 PM 73.0 °F - 24.1 °F 16% 30.10 in 10.0 mi West 3.5 mph 17.3 mph N/A   Mostly Cloudy
2:55 PM 72.5 °F - 25.0 °F 17% 30.09 in 10.0 mi NNW 9.2 mph - N/A   Mostly Cloudy
3:15 PM 73.9 °F - 25.9 °F 17% 30.09 in 10.0 mi WNW 8.1 mph - N/A   Scattered Clouds
3:35 PM 73.4 °F - 23.0 °F 15% 30.07 in 10.0 mi WNW 9.2 mph - N/A   Scattered Clouds
3:55 PM 73.6 °F - 24.1 °F 16% 30.07 in 10.0 mi WNW 15.0 mph 20.7 mph N/A   Scattered Clouds
4:15 PM 74.7 °F - 23.0 °F 15% 30.06 in 10.0 mi NNW 15.0 mph 21.9 mph N/A   Scattered Clouds
4:35 PM 76.3 °F - 21.4 °F 13% 30.05 in 10.0 mi West 10.4 mph 20.7 mph N/A   Scattered Clouds
4:55 PM 76.3 °F - 19.6 °F 12% 30.05 in 10.0 mi WNW 9.2 mph 18.4 mph N/A   Scattered Clouds
5:15 PM 77.0 °F - 20.5 °F 12% 30.05 in 10.0 mi West 10.4 mph 18.4 mph N/A   Scattered Clouds
5:35 PM 76.3 °F - 20.1 °F 12% 30.05 in 10.0 mi WSW 13.8 mph 20.7 mph N/A   Scattered Clouds
5:55 PM 75.6 °F - 18.9 °F 12% 30.04 in 10.0 mi WNW 11.5 mph 23.0 mph N/A   Scattered Clouds
6:15 PM 75.2 °F - 18.9 °F 12% 30.05 in 10.0 mi West 11.5 mph 16.1 mph N/A   Clear
6:35 PM 74.3 °F - 18.9 °F 12% 30.05 in 10.0 mi West 12.7 mph - N/A   Clear
6:55 PM 74.1 °F - 20.8 °F 14% 30.05 in 10.0 mi WSW 10.4 mph - N/A   Clear
7:15 PM 71.6 °F - 21.7 °F 15% 30.06 in 10.0 mi West 11.5 mph - N/A   Clear
7:35 PM 69.8 °F - 21.7 °F 16% 30.07 in 10.0 mi West 9.2 mph - N/A   Clear
7:55 PM 67.1 °F - 26.4 °F 22% 30.07 in 10.0 mi SW 4.6 mph - N/A   Clear
8:15 PM 65.1 °F - 27.9 °F 25% 30.09 in 10.0 mi West 5.8 mph - N/A   Clear
8:35 PM 64.9 °F - 25.3 °F 22% 30.09 in 10.0 mi West 8.1 mph - N/A   Clear
8:55 PM 64.6 °F - 25.2 °F 22% 30.10 in 10.0 mi West 9.2 mph - N/A   Clear
9:15 PM 62.1 °F - 27.1 °F 27% 30.10 in 10.0 mi WSW 8.1 mph - N/A   Clear
9:35 PM 59.7 °F - 28.6 °F 31% 30.11 in 10.0 mi WSW 5.8 mph - N/A   Clear
9:55 PM 59.4 °F - 28.0 °F 30% 30.12 in 10.0 mi WSW 9.2 mph - N/A   Clear
10:15 PM 60.6 °F - 28.0 °F 29% 30.12 in 10.0 mi SW 10.4 mph - N/A   Clear
10:35 PM 59.9 °F - 28.4 °F 30% 30.12 in 10.0 mi West 8.1 mph - N/A   Clear
10:55 PM 58.6 °F - 28.6 °F 32% 30.13 in 10.0 mi WSW 10.4 mph - N/A   Clear
11:15 PM 58.6 °F - 28.0 °F 31% 30.12 in 10.0 mi West 9.2 mph - N/A   Mostly Cloudy
11:35 PM 58.1 °F - 28.6 °F 32% 30.12 in 10.0 mi WSW 9.2 mph - N/A   Scattered Clouds
11:55 PM 57.6 °F - 28.9 °F 34% 30.13 in 10.0 mi WSW 5.8 mph - N/A   Clear